Tracking 18852 objects as of 23-Nov-2017
HD Live streaming from Space Station
objects crossing your sky now

MOLNIYA 2-10

Track MOLNIYA 2-10 now!
MOLNIYA 2-10 is classified as:


NORAD ID: 7376
Int'l Code: 1974-056A
Perigee: 884.6 km
Apogee: 39,392.4 km
Inclination: 63.1 °
Period: 715.9 minutes
Semi major axis: 26509 km
RCS: 14.6103 m2 (large)
Launch date: July 23, 1974
Source: Commonwealth of Independent States (former USSR) (CIS)
Launch site: PLESETSK MISSILE AND SPACE COMPLEX (PKMTR)
aabbcc
Your satellite tracking list
Your tracking list is empty




NASA's NSSDC Master Catalog

Two Line Element Set (TLE):
1 07376U 74056A   17326.80849304 -.00001626  00000-0 -32278-3 0  9992
2 07376  63.1105 279.2067 7263008 293.7654   8.8430  2.01141044316860
Source of the keplerian elements: AFSPC